User: anonymous   Login
Location: Bouillancy
(49.1149°N, 2.9308°E)
Time: 09:23:32
(UTC+00:00)
Language:

Cosmos 2084 - Orbit

View from above orbital plane
View from above orbital plane
View from above satellite
View from above satellite

Ground track
Ground track

The orbit data is extracted from the following two-line orbital elements,

1 20663U 90055A   20336.72801269  .00000386  00000-0  55241-4 0  9993
2 20663  62.7950 329.6638 0040349 328.1423  31.7230 14.92150741648310
Epoch (UTC): 01 December 2020 17:28:20
Eccentricity: 0.0040349
inclination: 62.7950°
perigee height: 563 km
apogee height: 619 km
right ascension of ascending node: 329.6638°
argument of perigee: 328.1423°
revolutions per day: 14.92150741
mean anomaly at epoch: 31.7230°
orbit number at epoch: 64831

The dashed part of the orbit path shows where the satellite is in the earth's shadow,  

DLR